SCP
1 1 1 1 1 1 2 2 2 2 2 2 2 2 2 2 1 1 1 1 1 1 1 1 1 1 1 1 1 1 1 1 1 1 1 1 1 1 1 1 1 0 0
1 1 1 1 1 1 1 1 2 2 2 2 2 2 1 1 1 1 1 1 1 1 1 1 1 1 1 1 1 1 1 1 1 1 1 1 1 1 1 1 1 0 0
1 1 1 1 1 1 1 1 1 1 1 1 1 1 1 1 1 1 1 1 1 1 1 1 1 1 1 1 1 1 1 1 1 1 1 1 1 1 1 1 1 0 0
0 0 0 0 1 1 1 1 1 1 1 1 1 1 1 1 1 1 1 1 1 0 0 1 1 1 1 1 1 1 1 1 1 1 1 1 1 1 1 1 1 1 1
0 0 0 0 0 1 1 1 1 1 1 1 1 1 1 1 1 1 1 1 1 1 0 1 1 1 1 1 1 1 1 1 1 1 1 1 1 1 1 1 0 1 0
0 0 0 0 0 0 1 1 1 1 1 1 1 1 1 1 1 1 1 1 1 1 0 0 1 1 1 1 1 1 1 1 1 1 1 1 1 1 1 1 0 0 0
0 0 0 0 0 0 1 1 1 1 1 1 1 1 1 1 1 1 1 1 0 0 0 0 1 1 1 1 1 0 0 1 1 1 1 1 1 1 1 1 0 0 0
0 0 0 0 0 0 1 1 1 1 1 1 1 1 1 1 1 1 1 1 0 0 0 0 0 0 0 0 0 0 0 0 0 0 0 1 1 1 1 1 1 0 0
0 0 0 0 0 0 1 1 1 1 1 1 1 1 1 1 1 1 1 1 0 0 0 0 0 0 0 0 0 0 0 0 0 0 0 0 0 1 1 1 1 1 0
0 0 0 0 0 0 0 1 1 1 1 1 1 1 1 1 1 1 1 1 1 0 0 0 0 0 0 0 0 0 0 0 0 0 0 0 0 0 0 0 0 1 1
0 0 0 0 0 0 0 0 0 0 0 0 0 0 0 0 0 0 0 0 0 0 0 0 0 0 0 0 0 0 0 0 0 0 0 0 0 0 0 0 0 0 0
0 0 0 0 0 0 0 0 0 0 0 0 0 0 0 0 0 0 0 0 0 0 0 0 0 0 0 0 0 0 0 0 0 0 0 0 0 0 0 0 0 0 0
0 0 0 0 0 0 0 0 0 0 0 0 0 0 0 0 0 0 0 0 0 0 0 0 0 0 0 0 0 0 0 0 0 0 0 0 0 0 0 0 0 0 0
0 0 0 0 0 0 0 0 0 0 0 0 0 0 0 0 0 0 0 0 0 0 0 0 0 0 0 0 0 0 0 0 0 0 0 0 0 0 0 0 0 0 0
0 0 0 0 0 0 0 0 0 0 0 0 0 0 0 0 0 0 0 0 0 0 0 0 0 0 0 0 0 0 0 0 0 0 0 0 0 0 0 0 0 0 0
0 0 0 0 0 0 0 0 0 0 0 0 0 0 0 0 0 0 0 0 0 0 0 0 0 0 0 0 0 0 0 0 0 0 0 0 0 0 0 0 0 0 0
0 0 0 0 0 0 0 0 0 0 0 0 0 0 0 0 0 0 0 0 0 0 0 0 0 0 0 0 0 0 0 0 0 0 0 0 0 0 0 0 0 0 0
0 0 0 0 0 0 0 0 0 0 0 0 0 0 0 0 0 0 0 0 0 0 0 0 0 0 0 0 0 0 0 0 0 0 0 0 0 0 0 0 0 0 0
0 0 0 0 0 0 0 0 0 0 0 0 0 0 0 0 0 0 0 0 0 0 0 0 0 0 0 0 0 0 0 0 0 0 0 0 0 0 0 0 0 0 0
0 0 0 0 0 0 0 0 0 0 0 0 0 0 0 0 0 0 0 0 0 0 0 0 0 0 0 0 0 0 0 0 0 0 0 0 0 0 0 0 0 0 0
0 0 0 0 0 0 0 0 0 0 0 0 0 0 0 0 0 0 0 0 0 0 0 0 0 0 0 0 0 0 0 0 0 0 0 0 0 0 0 0 0 0 0
0 0 0 0 0 0 0 0 0 0 0 0 0 0 0 0 0 0 0 0 0 0 0 0 0 0 0 0 0 0 0 0 0 0 0 0 0 0 0 0 0 0 0
0 0 0 0 0 0 0 0 0 0 0 0 0 0 0 0 0 0 0 0 0 0 0 0 0 0 0 0 0 0 0 0 0 0 0 0 0 0 0 0 0 0 0
0 0 0 0 0 0 0 0 0 0 0 0 0 0 0 0 0 0 0 0 0 0 0 0 0 0 0 0 0 0 0 0 0 0 0 0 0 0 0 0 0 0 0
0 0 0 0 0 0 0 0 0 0 0 0 0 0 0 0 0 0 0 0 0 0 0 0 0 0 0 0 0 0 0 0 0 0 0 0 0 0 0 0 0 0 0
0 0 0 0 0 0 0 0 0 0 0 0 0 0 0 0 0 0 0 0 0 0 0 0 0 0 0 0 0 0 0 0 0 0 0 0 0 0 0 0 0 0 0
Wind_Speed
8 8 8 9 8 7 5 5 5 4 3 2 2 2 2 2 2 2 2 3 3 3 3 4 4 4 4 5 4 4 5 5 4 3 3 4 5 6 5 6 5 6 8
8 7 6 6 6 4 3 3 4 4 3 2 2 2 3 2 2 2 1 2 2 3 4 4 4 3 4 5 4 4 5 5 4 3 3 3 3 4 7 6 6 6 5
6 6 5 4 4 3 3 4 3 3 3 3 3 2 2 2 1 1 1 1 2 2 3 4 3 4 3 3 4 4 5 4 4 4 3 3 3 2 3 6 6 5 4
6 5 4 4 3 2 3 3 2 2 3 4 4 5 4 3 3 2 2 2 2 2 2 3 3 3 3 3 4 3 3 4 4 4 4 2 1 1 1 2 3 5 5
4 4 3 2 2 1 1 2 1 1 1 3 5 5 5 5 4 3 4 3 3 3 3 2 2 2 2 3 3 2 2 3 3 3 3 3 3 3 2 2 3 3 4
3 3 2 2 2 2 2 1 0 1 2 2 3 4 6 6 7 6 5 4 3 3 3 3 2 2 2 2 2 3 3 3 3 3 3 2 2 2 3 3 3 4 3
3 3 3 3 3 3 3 3 2 2 3 4 4 4 6 7 7 7 6 5 4 4 3 3 2 2 2 2 2 2 3 3 3 4 4 3 3 2 2 2 2 2 2
4 4 5 4 4 5 5 4 4 3 4 4 5 5 6 6 6 6 6 6 5 5 4 3 3 3 3 3 2 1 2 2 3 4 4 4 3 3 2 2 2 2 2
5 7 7 7 7 6 5 5 5 5 5 5 5 6 6 6 7 7 7 6 5 6 6 4 4 4 4 4 2 2 3 2 2 3 4 3 3 2 2 2 2 3 3
9 10 9 9 8 8 7 7 7 6 6 7 7 8 6 6 7 7 7 7 7 7 6 6 6 6 5 5 4 4 4 3 3 3 3 3 2 2 2 2 2 2 3
12 11 10 10 10 11 10 9 9 8 7 7 7 7 7 7 7 7 7 7 6 7 7 7 7 7 7 6 6 6 5 5 5 4 4 4 4 2 2 2 2 2 2
11 11 12 12 11 12 12 11 10 10 9 8 8 8 8 8 8 8 8 8 8 8 8 8 8 8 8 7 7 8 7 6 6 6 5 5 4 4 3 2 3 2 2
11 11 10 10 11 11 11 12 11 11 11 11 10 10 10 9 9 9 8 8 9 8 8 8 8 8 8 8 7 7 8 8 7 7 6 6 5 5 4 4 4 3 3
10 11 9 9 10 10 10 11 12 11 11 11 11 10 10 9 9 9 9 8 9 9 9 9 9 8 8 9 8 8 8 8 8 7 7 7 6 6 5 5 4 4 3
12 12 11 9 9 10 10 10 10 11 11 11 11 10 10 10 10 10 9 9 9 11 9 9 9 8 8 10 10 8 9 8 8 8 7 7 9 9 7 6 4 4 3
13 13 13 12 11 11 10 11 11 10 11 11 12 11 11 11 10 10 10 9 9 9 9 9 10 10 11 9 8 7 7 6 7 7 6 7 7 9 11 10 8 6 5
13 13 13 11 10 11 10 11 12 11 11 11 12 11 11 12 11 12 11 10 10 9 9 9 10 10 10 11 9 8 7 7 6 7 6 8 9 10 9 11 12 11 11
13 12 12 12 11 11 11 11 12 11 12 12 12 12 12 13 12 11 11 10 9 9 9 9 9 9 11 11 10 10 8 7 7 7 7 7 7 8 7 8 8 9 9
11 11 11 12 11 11 12 12 13 12 13 13 13 14 13 13 13 12 11 10 9 9 9 9 9 9 9 10 10 10 7 7 8 8 8 8 9 10 9 7 7 7 7
10 11 11 11 11 11 11 12 13 13 13 13 14 14 13 13 13 12 11 9 8 9 9 9 9 9 8 9 10 11 6 7 7 7 8 11 10 11 11 8 7 7 6
11 11 11 10 10 10 11 12 13 13 13 13 13 13 12 12 12 10 8 9 8 8 8 9 8 8 8 8 10 12 7 7 6 6 6 7 12 13 13 11 7 7 5
12 12 10 10 10 10 11 12 12 12 12 13 13 13 13 12 10 9 9 8 8 8 7 7 7 5 4 5 8 12 11 7 4 4 4 4 8 12 13 10 8 8 5
10 10 11 11 10 10 10 12 12 12 12 13 13 12 13 10 9 8 8 7 6 5 5 5 4 4 3 3 7 10 11 10 6 4 2 3 5 7 8 10 10 8 6
10 10 11 12 11 11 11 11 11 12 13 13 13 11 11 10 9 6 5 5 5 5 5 5 4 3 2 1 1 4 6 7 7 6 5 6 6 6 6 7 7 7 6
9 9 10 10 12 11 11 11 11 12 13 13 12 11 10 9 8 6 4 5 4 4 4 5 4 4 3 2 2 2 1 2 2 3 4 4 5 6 6 6 7 7 7
9 9 10 11 11 11 11 11 11 12 12 11 11 9 9 8 7 6 4 3 3 3 3 3 4 3 2 2 2 1 1 2 1 2 4 5 5 6 7 7 7 7 8
Wind_Direction
85 80 71 71 73 64 52 52 43 36 15 10 335 306 291 284 273 261 266 278 285 292 285 274 265 246 239 233 228 226 230 229 220 235 252 242 226 215 210 204 207 205 201
91 88 87 87 89 91 76 62 45 29 14 360 310 294 300 285 267 272 266 272 298 304 289 273 269 259 253 241 236 230 228 224 206 206 228 237 230 221 214 193 198 208 199
103 98 89 82 85 77 60 52 43 22 8 339 317 327 295 284 302 308 280 288 291 284 274 277 275 268 254 247 238 237 229 229 219 206 207 209 213 205 210 200 195 187 190
107 106 102 90 79 80 91 86 66 33 2 344 341 334 324 324 324 319 319 313 284 276 270 279 287 289 278 267 250 246 246 232 238 231 228 233 190 187 205 218 188 180 189
111 104 93 82 51 37 73 101 88 35 346 330 323 321 319 319 315 317 302 294 279 262 260 258 267 282 294 291 274 267 258 247 250 252 240 234 235 225 207 223 200 190 185
85 82 69 54 25 353 349 355 19 289 291 291 298 303 304 304 304 301 296 292 281 261 247 237 237 258 263 288 284 250 247 244 254 263 260 238 224 227 224 220 202 199 196
44 39 25 13 5 351 345 330 313 298 291 286 288 291 292 290 282 282 288 288 285 276 255 263 235 247 250 247 246 244 235 235 246 250 250 245 235 240 243 232 221 214 202
10 4 5 10 6 356 353 338 323 305 295 290 289 285 282 282 285 289 292 289 284 284 282 264 253 246 249 253 233 253 247 235 237 250 243 236 241 237 238 232 217 213 215
1 3 1 1 358 352 346 343 342 340 335 320 303 284 278 282 285 282 280 279 277 280 277 275 260 252 248 247 237 237 248 229 232 244 240 228 235 242 242 246 214 191 206
2 360 357 357 356 350 352 355 352 345 337 328 319 315 317 305 290 285 281 278 279 282 280 273 264 253 241 234 230 234 233 227 222 234 237 232 238 241 250 247 247 209 196
356 355 356 358 355 349 348 349 346 340 336 331 327 320 313 309 305 298 292 287 281 280 280 276 268 261 251 238 228 230 229 228 223 229 227 223 227 229 242 253 256 243 218
355 357 357 355 349 344 341 338 336 332 330 330 327 320 317 314 309 305 301 300 291 281 276 271 267 262 260 248 235 233 234 228 225 221 219 221 226 223 223 230 252 255 245
1 356 356 350 344 342 337 333 330 330 330 329 325 320 317 315 309 304 298 295 290 285 278 271 267 264 262 255 243 233 230 230 228 219 213 214 217 217 219 215 228 240 247
360 353 353 349 345 339 336 331 330 329 326 325 319 314 312 309 306 303 298 292 288 286 281 276 273 270 268 262 251 242 236 228 224 221 213 208 212 213 215 217 216 227 242
353 351 348 346 341 338 333 333 332 328 325 319 314 311 308 307 305 302 298 295 291 288 284 280 276 272 269 262 253 239 240 233 225 224 219 216 212 207 207 219 208 212 221
350 347 345 342 340 336 334 335 328 324 321 317 315 312 308 304 300 298 294 290 287 284 281 279 275 268 265 269 270 256 245 233 229 225 223 228 221 212 209 213 213 212 217
347 346 343 339 336 336 339 332 326 325 322 318 316 315 312 306 302 302 301 296 292 288 281 277 275 271 266 260 255 249 250 236 226 224 222 232 232 209 206 209 214 220 223
347 345 339 336 337 339 336 330 326 324 320 318 318 317 314 311 308 303 297 295 292 289 283 276 273 271 268 259 244 229 237 242 232 226 221 220 241 238 211 210 214 217 217
347 342 338 337 339 340 336 330 324 324 323 324 323 320 318 313 309 304 300 297 293 288 282 277 270 266 262 254 239 221 231 232 232 233 229 221 224 226 215 209 215 223 226
346 342 340 338 340 341 335 328 326 326 327 327 322 319 316 311 306 301 299 296 293 286 283 279 273 268 261 246 228 213 229 232 231 230 232 229 223 217 208 210 212 219 226
346 345 342 340 340 337 333 328 327 327 327 323 319 317 315 309 302 303 302 297 292 288 284 282 276 267 257 240 218 207 220 231 231 232 226 224 214 210 205 207 210 213 217
347 344 340 339 339 337 333 329 329 328 326 323 320 318 316 314 315 313 307 303 299 295 290 286 285 275 254 231 216 207 216 231 245 246 237 222 202 200 200 202 206 198 203
345 341 338 337 338 338 337 330 329 329 327 324 322 320 318 315 313 312 310 307 304 299 299 298 296 289 266 227 210 211 216 221 235 254 239 184 176 180 195 208 200 194 205
342 340 339 337 336 338 337 333 332 333 329 326 323 321 321 320 320 315 312 313 317 318 321 322 320 313 302 284 218 212 213 217 225 233 216 187 184 196 207 192 198 207 214
340 339 337 334 334 336 336 338 338 335 331 326 324 325 325 325 321 319 323 322 338 336 318 323 327 331 335 348 340 298 251 227 215 217 208 204 195 203 210 205 198 202 207
337 337 337 336 335 335 337 339 338 335 331 327 328 327 326 326 324 323 328 326 312 323 307 297 302 317 330 320 336 330 255 229 208 224 222 220 218 217 216 213 207 205 206